Showing default

CHINASAT 6A, 37150

Orbit data source: Space-Track

CHINASAT 6A, 37150 is a payload satellite owned by China Satcom (CN) in GEO that was launched on Sat, 04 Sep 2010 UTC via a CHANG ZHENG 3B launch vehicle from the Xichang Space Center, China (XSC). Payloads include a variety of satellites, spacecraft, and rockets equipped with specific instruments for various scientific and technological missions. These include communications satellites like Starlink; space stations such as the ISS; scientific satellites like the Hubble; Earth observation satellites from companies like Planet Labs, Umbra, and HawkEye 360; GPS; miniature CubeSats for education and research; and military/defense satellites.

Not visible in the next 10 days
CHINASAT 6A details
Identifier
37150, 2010-042A
Orbit
GEO
Last TLE update12 hours ago
Origin
Flag of CNChina Satcom (CN / PRC)
ManufacturerCAST
MissionNon-operational Commercial Communications
Bus & MotorDFH-4, FY
Mass5,100 kg wet, ~2,500 kg dry
Launch date (UTC)
2010-09-04 (14 years ago)
Launch vehicle
CHANG ZHENG 3B
Launch site
Xichang Space Center, China (XSC)
Object type
Payload
Rocket body
Debris
Shape & HBRBox + 2 Pan, 15.5 m
Radar Cross Section19.960 m², Large (>1 m²)

Expand to show TLE details & history

TLE from 12 hours ago
0 CHINASAT 6A
1 37150U 10042A   24361.11581663  .00000042  00000-0  00000-0 0  9996
2 37150   2.8314  84.0454 0003955 204.9725 283.7712  0.99692841 52513
Epoch: 2024-12-26T02:46Z
Definitive object data (Epoch: 2024-12-26T02:46:46.556Z)
Latitude2.20016°
Longitude75.98224°
Altitude35,944.879 km
Speed3.069 km/s
True Right ascension14h 11m 06s
True Declination2° 11' 53"
Sunlit
Object was in daylight at TLE epoch
Visualization TLE readout
Latitude-2.25757°
Longitude-105.86885°
Altitude35,952.998 km
Speed3.069 km/s
Apparent Right ascension02h 03m 38s
Apparent Declination-6° 55' 49"
Sunlit
Object is in daylight
Visualization observer readout
Local Sidereal Time14:03:05
Azimuth359.75° N
Elevation-57.014°
Doppler factor1
Orbital elements
Apogee altitude35,967.483 km
Perigee altitude35,934 km
Semi-major axis42,328.879 km
Eccentricity0.0003955
Inclination2.8314°
RAAN84.0454°
Arg. of periapsis204.9725°
True anomaly283.72718°
Mean anomaly283.7712°
Eccentric anomaly283.74919°
Mean motion0.24922 °/min
BSTARUnknown
Orbital period1444.49 mins
Loading historical data...
37150 neighbors
Authenticating...
Loading maneuver chart data...
Loading historical data...
Loading historical data...
Loading historical data...
Loading historical data...
Loading historical data...
Loading historical data...
Loading historical data...

CHINASAT 6A Visibility forecast

Observer location: undefined°, undefined

CHINASAT 6A is not visible in the next 10 days
Span
Click to sort rows by Start time (UTC) header in descending order
Start Az.
Max El. time (UTC)
Max El. Az.
Max El.
End time (UTC)
End Az.
|